Regional Weather Roundup
Issued by NWS

Home | Current Version | Previous Version | Text Only | Print | Product List | Glossary On
Versions: 1 2 3 4 5 6 7 8 9 10 11 12 13 14 15 16 17 18 19 20 21 22 23 24 25 26 27 28
000
ASUS45 KPSR 200610
RWRAZ

ARIZONA HOURLY REGIONAL WEATHER ROUNDUP
NATIONAL WEATHER SERVICE PHOENIX AZ
1100 PM MST TUE SEP 19 2017

NOTE: FAIR INDICATES FEW OR NO CLOUDS BELOW 12,000 FEET WITH NO
SIGNIFICANT WEATHER AND/OR OBSTRUCTIONS TO VISIBILITY.

AZZ001>003-036-200700-
NORTHWEST ARIZONA

CITY           SKY/WX    TMP DP  RH WIND       PRES   REMARKS
KINGMAN        CLEAR     69  36  29 S12       29.88R
6HR MIN TEMP:  64; 6HR MAX TEMP:  84;

$$

AZZ004>008-015-016-018-200700-
NORTH CENTRAL ARIZONA

CITY           SKY/WX    TMP DP  RH WIND       PRES   REMARKS
GRAND CANYON   CLEAR     45  31  58 CALM      30.09R
6HR MIN TEMP:  45; 6HR MAX TEMP:  72;

WILLIAMS       CLEAR     57  30  35 S10       30.10R
PRESCOTT       CLEAR     65  31  28 VRB3      30.02R
6HR MIN TEMP:  56; 6HR MAX TEMP:  77;

FLAGSTAFF      CLEAR     56  32  40 W9        30.13S
6HR MIN TEMP:  55; 6HR MAX TEMP:  67;

PAYSON           N/A     64  36  34 CALM      30.05S
PAGE           CLEAR     72  33  24 W3        29.88R
6HR MIN TEMP:  72; 6HR MAX TEMP:  86;

$$

AZZ009>014-017-200700-
NORTHEAST ARIZONA

CITY           SKY/WX    TMP DP  RH WIND       PRES   REMARKS
WINSLOW        CLEAR     63  34  33 CALM      30.00R
6HR MIN TEMP:  62; 6HR MAX TEMP:  82;

SAINT JOHNS    CLEAR     64  37  36 CALM      30.05S
6HR MIN TEMP:  63; 6HR MAX TEMP:  79;

WINDOW ROCK    CLEAR     54  31  41 S8        30.10R
6HR MIN TEMP:  54; 6HR MAX TEMP:  75;

SHOW LOW       CLEAR     61  36  39 S17       30.11S
$$

AZZ540-542>544-546-548-200700-
GREATER PHOENIX AREA

CITY           SKY/WX    TMP DP  RH WIND       PRES   REMARKS
PHOENIX        CLEAR     83  31  15 SE8       29.76S
6HR MIN TEMP:  82; 6HR MAX TEMP:  98;

BUCKEYE        CLEAR     77  27  15 W5        29.78R
LUKE AFB       CLEAR     80  31  17 SW10      29.77S
6HR MIN TEMP:  79; 6HR MAX TEMP:  97; 6HR PCP: TRACE;

DEER VALLEY    CLEAR     81  30  15 SW6       29.79R
6HR MIN TEMP:  81; 6HR MAX TEMP:  95;

SCOTTSDALE     CLEAR     82  28  14 CALM      29.81R
6HR MIN TEMP:  82; 6HR MAX TEMP:  96;

MESA-GATEWAY   CLEAR     77  23  13 SE5       29.82R
$$

AZZ539-553-200700-
SOUTHWEST MARICOPA COUNTY AND PINAL COUNTY

CITY           SKY/WX    TMP DP  RH WIND       PRES   REMARKS
CASA GRANDE    NOT AVBL
GILA BEND      CLEAR     80  21  11 SE10      29.76R
6HR MIN TEMP:  80; 6HR MAX TEMP:  97;

$$

AZZ503-504-507>509-200700-
SOUTHEAST ARIZONA

CITY           SKY/WX    TMP DP  RH WIND       PRES   REMARKS
TUCSON         CLEAR     80  54  40 S8        29.94R
6HR MIN TEMP:  80; 6HR MAX TEMP:  94;

DAVIS-MONTHAN  CLEAR     75  52  43 CALM      29.92R
6HR MIN TEMP:  75; 6HR MAX TEMP:  94;

NOGALES        CLEAR     71  55  56 S5        30.02R
6HR MIN TEMP:  70; 6HR MAX TEMP:  88;

SIERRA VISTA   CLEAR     75  53  47 SW6       30.07R
6HR MIN TEMP:  73; 6HR MAX TEMP:  84;

DOUGLAS        CLEAR     70  53  54 S3        30.03R
6HR MIN TEMP:  69; 6HR MAX TEMP:  88;

SAFFORD        CLEAR     80  40  23 NW13      29.90R
6HR MIN TEMP:  79; 6HR MAX TEMP:  93;

$$

AZZ532-200700-
SOUTHWEST ARIZONA

CITY           SKY/WX    TMP DP  RH WIND       PRES   REMARKS
YUMA           CLEAR     81  55  40 S3        29.73R
6HR MIN TEMP:  81; 6HR MAX TEMP:  97;

$$

CAZ041-043-047-048-061-525>527-560>570-200700-
SOUTHERN CALIFORNIA

CITY           SKY/WX    TMP DP  RH WIND       PRES   REMARKS
DOWNTOWN L.A.  CLEAR     68  60  75 CALM      29.88S
6HR MIN TEMP:  67; 6HR MAX TEMP:  75;

L.A. AIRPORT   PTCLDY    67  61  81 SW6       29.89R
6HR MIN TEMP:  66; 6HR MAX TEMP:  72;

SAN DIEGO      CLOUDY    70  61  73 S8        29.91S
6HR MIN TEMP:  70; 6HR MAX TEMP:  72;

BURBANK        CLEAR     67  56  67 CALM      29.89S
6HR MIN TEMP:  67; 6HR MAX TEMP:  74;

ONTARIO        PTCLDY    65  59  81 W8G14     29.90R
6HR MIN TEMP:  65; 6HR MAX TEMP:  77;

RIVERSIDE      CLEAR     65  59  81 W3        29.90R
6HR MIN TEMP:  65; 6HR MAX TEMP:  78;

PALM SPRINGS   CLEAR     79  55  43 NW16G22   29.73S
6HR MIN TEMP:  79; 6HR MAX TEMP:  92;

EL CENTRO NAS  CLEAR     81  40  23 W17       29.72R
6HR MIN TEMP:  81; 6HR MAX TEMP:  96;

IMPERIAL       CLEAR     80  46  30 W13       29.70R
6HR MIN TEMP:  80; 6HR MAX TEMP:  96;

BLYTHE         CLEAR     83  51  33 S14       29.71R
6HR MIN TEMP:  81; 6HR MAX TEMP:  97;

NEEDLES        CLEAR     85  37  18 CALM      29.71R
6HR MIN TEMP:  84; 6HR MAX TEMP:  98;

$$

NVZ020-UTZ003-200700-
SOUTHERN NEVADA-UTAH

CITY           SKY/WX    TMP DP  RH WIND       PRES   REMARKS
LAS VEGAS      CLEAR     80  41  24 S9        29.75R
6HR MIN TEMP:  80; 6HR MAX TEMP:  89;

SALT LAKE CITY PTCLDY    52  41  66 CALM      29.94R
6HR MIN TEMP:  52; 6HR MAX TEMP:  63;

$$

NMZ009-TXZ055-200700-
NEW MEXICO-WEST TEXAS

CITY           SKY/WX    TMP DP  RH WIND       PRES   REMARKS
ALBUQUERQUE    CLOUDY    69  28  21 SW5       30.00R
6HR MIN TEMP:  69; 6HR MAX TEMP:  85;

EL PASO        PTCLDY    83  45  26 W8        29.95R
6HR MIN TEMP:  83; 6HR MAX TEMP:  92;

$$


........................KEY........................
SKY/WX - SKY CONDITION/WEATHER
TMP    - TEMPERATURE IN FAHRENHEIT
DP     - DEW POINT IN FAHRENHEIT
RH     - RELATIVE HUMIDITY IN PERCENT
WIND   - DIRECTION AND SPEED IN MILES PER HOUR (MPH)
VRB    - VARIABLE WIND DIRECTION
PRES   - MEAN SEA LEVEL PRESSURE IN INCHES OF MERCURY
         F - FALLING PRESSURE   R - RISING PRESSURE
         S - STEADY PRESSURE
VSB    - VISIBILITY IN MILES
HX     - HEAT INDEX IN FAHRENHEIT
WCI    - WIND CHILL INDEX IN FAHRENHEIT
TC     - TEMPERATURE IN CELSIUS WHICH IS ALSO KNOWN AS
         TEMPERATURE IN CENTIGRADE
AFB    - AIR FORCE BASE
         LUKE AFB IS LUKE AIR FORCE BASE
         DAVIS-MONTHAN IS DAVIS-MONTHAN AIR FORCE BASE
NAS    - NAVAL AIR STATION
         EL CENTRO NAS IS EL CENTRO NAVAL AIR STATION
N/A    - NOT AVAILABLE





USA.gov is the U.S. government's official web portal to all federal, state and local government web resources and services.